Weather History for KRUE - April, 2014

Change the Weather History Date:

Monday, April 7, 2014

  Actual Average (KHOT) Record (KHOT)
Temperature  
Mean Temperature 55 °F -  
Max Temperature 64 °F 73 °F 87 °F (1948)
Min Temperature 46 °F 47 °F 29 °F (1990)
Degree Days  
Heating Degree Days 10    
Growing Degree Days 5 (Base 50)    
Moisture  
Dew Point 43 °F    
Average Humidity 80    
Maximum Humidity 93    
Minimum Humidity 41    
Precipitation  
Precipitation 0.32 in - - ()
Sea Level Pressure  
Sea Level Pressure 29.75 in    
Wind  
Wind Speed 7 mph (NW)    
Max Wind Speed 18 mph    
Max Gust Speed 25 mph    
Visibility 7 miles    
Events Rain    
Averages and records for this station are not official NWS values.
T = Trace of Precipitation, MM = Missing Value Source: NWS Daily Summary

Daily Weather History Graph

Daily Weather History Graph

Search for Another Location

Airport or City:

Trip Planner

Search our weather history database for the weather conditions in past years. The results will help you decide how hot, cold, wet, or windy it might be!

Date:

Astronomy

Apr. 07, 2014 Rise Set
Actual Time 6:50 AM CDT 7:38 PM CDT
Civil Twilight 6:24 AM CDT 8:04 PM CDT
Nautical Twilight 5:54 AM CDT 8:35 PM CDT
Astronomical Twilight 5:23 AM CDT 9:06 PM CDT
Moon 12:52 PM CDT (4/7) 2:10 AM CDT (4/7)
Length of Visible Light 13h 39m
Length of Day
12h 47m
First Quarter, 53% of the Moon is Illuminated
Apr 7
First Quarter
Apr 15
Full
Apr 22
Last Quarter
Apr 29
New
May 6
First Quarter

Hourly Weather History & Observations

Time (CDT) Temp. Windchill Dew Point Humidity Pressure Visibility Wind Dir Wind Speed Gust Speed Precip Events Conditions
12:53 AM 48.0 °F - 45.0 °F 89% 29.73 in 3.0 mi NE 3.5 mph - 0.00 in Rain Light Rain
12:56 AM 48.2 °F - 44.6 °F 87% 29.72 in 2.5 mi NE 4.6 mph - 0.01 in Rain Light Rain
1:12 AM 48.2 °F - 44.6 °F 87% 29.71 in 3.0 mi North 3.5 mph - 0.03 in Rain Light Rain
1:23 AM 46.4 °F 44.3 °F 44.6 °F 93% 29.70 in 3.0 mi North 4.6 mph - 0.03 in Rain Light Rain
1:31 AM 46.4 °F 44.3 °F 44.6 °F 93% 29.68 in 2.5 mi NNE 4.6 mph - 0.04 in Rain Light Rain
1:41 AM 46.4 °F 43.5 °F 44.6 °F 93% 29.69 in 4.0 mi NNW 5.8 mph - 0.04 in   Overcast
1:43 AM 46.4 °F 44.3 °F 44.6 °F 93% 29.69 in 4.0 mi NNW 4.6 mph - 0.04 in   Overcast
1:53 AM 46.9 °F - 45.0 °F 93% 29.67 in 4.0 mi NW 6.9 mph - 0.04 in   Overcast
2:02 AM 46.4 °F 41.5 °F 44.6 °F 93% 29.69 in 4.0 mi WNW 10.4 mph - 0.00 in Rain Light Rain
2:13 AM 46.4 °F 40.4 °F 44.6 °F 93% 29.71 in 2.5 mi WNW 13.8 mph - 0.02 in Rain Rain
2:26 AM 46.4 °F 39.2 °F 44.6 °F 93% 29.73 in 1.8 mi WNW 18.4 mph 25.3 mph 0.11 in Rain Heavy Rain
2:33 AM 46.4 °F 40.4 °F 44.6 °F 93% 29.73 in 2.0 mi WNW 13.8 mph 25.3 mph 0.15 in Rain Heavy Rain
2:46 AM 46.4 °F 41.9 °F 44.6 °F 93% 29.74 in 4.0 mi West 9.2 mph 19.6 mph 0.18 in Rain Rain
2:53 AM 46.9 °F - 45.0 °F 93% 29.72 in 5.0 mi WNW 11.5 mph 19.6 mph 0.18 in Rain Light Rain
2:57 AM 46.4 °F 41.1 °F 44.6 °F 93% 29.74 in 6.0 mi WNW 11.5 mph - 0.01 in Rain Rain
3:05 AM 46.4 °F 40.7 °F 44.6 °F 93% 29.75 in 5.0 mi WNW 12.7 mph - 0.02 in Rain Rain
3:13 AM 46.4 °F 42.4 °F 44.6 °F 93% 29.74 in 4.0 mi NW 8.1 mph 18.4 mph 0.05 in Rain Rain
3:53 AM 46.9 °F - 44.1 °F 90% 29.70 in 9.0 mi NW 5.8 mph - 0.09 in Rain Light Rain
4:14 AM 46.4 °F 42.9 °F 44.6 °F 93% 29.72 in 9.0 mi WNW 6.9 mph - 0.01 in Rain Light Rain
4:53 AM 46.9 °F - 44.1 °F 90% 29.73 in 10.0 mi NW 6.9 mph - 0.01 in   Overcast
5:01 AM 46.4 °F 44.3 °F 44.6 °F 93% 29.74 in 10.0 mi WNW 4.6 mph - N/A   Overcast
5:28 AM 46.4 °F 44.3 °F 44.6 °F 93% 29.74 in 10.0 mi NW 4.6 mph - N/A   Overcast
5:53 AM 46.9 °F - 43.0 °F 86% 29.73 in 8.0 mi NW 9.2 mph - N/A   Overcast
6:53 AM 46.9 °F - 43.0 °F 86% 29.75 in 10.0 mi NW 6.9 mph - N/A   Overcast
7:17 AM 46.4 °F 41.9 °F 42.8 °F 87% 29.76 in 10.0 mi NW 9.2 mph - N/A   Overcast
7:53 AM 46.0 °F 40.6 °F 39.9 °F 79% 29.76 in 10.0 mi NW 11.5 mph 18.4 mph N/A   Mostly Cloudy
8:53 AM 48.0 °F - 39.0 °F 71% 29.77 in 10.0 mi NNW 10.4 mph - N/A   Clear
9:13 AM 48.2 °F - 39.2 °F 71% 29.78 in 10.0 mi NW 8.1 mph - N/A   Mostly Cloudy
9:22 AM 48.2 °F - 39.2 °F 71% 29.78 in 10.0 mi NW 8.1 mph - N/A   Scattered Clouds
9:53 AM 51.1 °F - 39.9 °F 66% 29.77 in 10.0 mi WNW 10.4 mph - N/A   Partly Cloudy
10:53 AM 55.0 °F - 41.0 °F 59% 29.78 in 10.0 mi NNW 9.2 mph - N/A   Partly Cloudy
11:53 AM 57.9 °F - 39.9 °F 51% 29.77 in 10.0 mi NNW 10.4 mph - N/A   Mostly Cloudy
12:53 PM 61.0 °F - 39.9 °F 46% 29.76 in 10.0 mi NNW 11.5 mph 18.4 mph N/A   Mostly Cloudy
1:53 PM 64.0 °F - 39.9 °F 41% 29.76 in 10.0 mi NNW 12.7 mph 18.4 mph N/A   Scattered Clouds
3:53 PM 63.0 °F - 42.1 °F 46% 29.76 in 10.0 mi West 10.4 mph - N/A   Overcast
4:53 PM 62.1 °F - 42.1 °F 48% 29.76 in 10.0 mi West 8.1 mph - N/A   Overcast
5:53 PM 61.0 °F - 44.1 °F 54% 29.78 in 10.0 mi West 9.2 mph - N/A   Overcast
6:53 PM 60.1 °F - 44.1 °F 55% 29.79 in 10.0 mi West 4.6 mph - N/A   Overcast
7:53 PM 60.1 °F - 44.1 °F 55% 29.81 in 10.0 mi Variable 3.5 mph - N/A   Overcast
8:53 PM 52.0 °F - 46.0 °F 80% 29.83 in 10.0 mi Calm Calm - N/A   Scattered Clouds
9:53 PM 48.9 °F - 45.0 °F 86% 29.85 in 10.0 mi Calm Calm - N/A   Clear
10:53 PM 48.9 °F - 46.0 °F 90% 29.86 in 9.0 mi Calm Calm - N/A   Overcast
11:53 PM 50.0 °F - 46.9 °F 89% 29.85 in 9.0 mi Calm Calm - N/A   Scattered Clouds